This is the latest recevied weather packets stored in our database for station/object BV5AB-13. If no packets are shown the sender has not sent any weather packets the latest 10 day(s).
| Time | Temp. | Humidity | Pressure | Rain* | Wind** | Luminosity | Snow |
|---|---|---|---|---|---|---|---|
| 1778026624 | 22.22° C | 93% | 1004.2 hPa | 0 mm | - | - | - |
| 1778026025 | 22.22° C | 93% | 1004.2 hPa | 0 mm | - | - | - |
| 1778025425 | 21.67° C | 93% | 1004.1 hPa | 0 mm | - | - | - |
| 1778024823 | 21.67° C | 95% | 1004 hPa | 0 mm | - | - | - |
| 1778024223 | 21.67° C | 96% | 1004.2 hPa | 0 mm | - | - | - |
| 1778023624 | 21.67° C | 97% | 1004.3 hPa | 0 mm | - | - | - |
| 1778023023 | 21.67° C | 97% | 1004.2 hPa | 0 mm | - | - | - |
| 1778022423 | 21.67° C | 97% | 1004.1 hPa | 0 mm | - | - | - |
| 1778021224 | 21.11° C | 98% | 1004.2 hPa | 0 mm | - | - | - |
| 1778020624 | 21.11° C | 98% | 1003.8 hPa | 0.51 mm | - | - | - |
| 1778020023 | 21.11° C | 98% | 1003.8 hPa | 0.51 mm | - | - | - |
| 1778019424 | 21.11° C | 98% | 1003.8 hPa | 0.51 mm | - | - | - |
| 1778018823 | 21.11° C | 98% | 1003.8 hPa | 1.02 mm | - | - | - |
| 1778018224 | 21.11° C | 98% | 1003.8 hPa | 1.52 mm | - | - | - |
| 1778017624 | 21.11° C | 98% | 1003.7 hPa | 2.03 mm | - | - | - |
| 1778017023 | 21.11° C | 98% | 1003.6 hPa | 2.03 mm | - | - | - |
| 1778016424 | 21.11° C | 98% | 1003.7 hPa | 3.56 mm | - | - | - |
| 1778015825 | 21.11° C | 98% | 1003.7 hPa | 5.59 mm | - | - | - |
| 1778015223 | 21.11° C | 98% | 1003.5 hPa | 5.59 mm | - | - | - |
| 1778014625 | 21.11° C | 98% | 1003.5 hPa | 6.1 mm | - | - | - |
| 1778014025 | 21.11° C | 98% | 1003.3 hPa | 7.11 mm | - | - | - |
| 1778013424 | 21.11° C | 98% | 1003.2 hPa | 7.11 mm | - | - | - |
| 1778012825 | 21.11° C | 98% | 1003.2 hPa | 6.6 mm | - | - | - |
| 1778012224 | 21.11° C | 98% | 1003.1 hPa | 5.08 mm | - | - | - |
| 1778011623 | 21.11° C | 98% | 1003.1 hPa | 5.08 mm | - | - | - |
* Rain latest hour (hover to see other rain measurements)
** Current wind speed in m/s (hover to see current wind gust speed)